Location: Atherton
(17.2661°S, 145.4859°E)
Time: 04:02:38
(UTC+10:00)

BlueWalker 3 - Visible Passes

Search period start: 17 April 2026 00:00
Search period end: 27 April 2026 00:00
Orbit: 449 x 457 km, 53.2° (Epoch: 15 April)

Date Brightness Start Highest point End Pass type
(mag) Time Alt. Az. Time Alt. Az. Time Alt. Az.
19 Apr 3.4 19:35:53 10° NNW 19:37:34 24° N 19:37:34 24° N visible
20 Apr 3.2 05:32:53 10° SSW 05:36:12 35° SE 05:39:29 10° ENE visible
20 Apr 2.8 18:59:42 10° N 19:02:48 27° ENE 19:03:30 25° ENE visible
21 Apr 3.9 04:57:53 16° S 04:59:38 23° SE 05:02:32 10° ENE visible
21 Apr 3.4 18:23:48 10° NNE 18:26:18 18° ENE 18:28:49 10° ESE visible
21 Apr 4.2 20:00:48 10° W 20:03:06 20° WSW 20:03:06 20° WSW visible
22 Apr 4.6 04:23:46 15° ESE 04:23:46 15° ESE 04:25:18 10° E visible
22 Apr 3.1 05:57:29 10° WSW 06:00:19 22° WNW 06:03:09 10° N visible
22 Apr 3.5 19:23:45 10° WNW 19:26:56 30° SW 19:28:53 18° S visible
23 Apr 2.4 05:23:24 33° WNW 05:23:49 35° WNW 05:27:04 10° N visible
23 Apr 2.7 18:46:54 10° NW 18:50:22 46° SW 18:53:52 10° SSE visible
24 Apr 3.6 04:49:18 23° NNE 04:49:18 23° NNE 04:50:47 10° NNE visible
